Regional Weather Roundup
Issued by NWS Binghamton, NY

Home | Current Version | Previous Version | Text Only | Print | Product List | Glossary On
Versions: 1 2 3 4 5 6 7 8 9 10 11 12 13 14 15 16 17 18 19 20 21 22 23 24 25 26 27 28 29 30 31 32 33 34 35 36 37 38 39 40 41 42 43 44 45 46 47 48 49 50
989
ASUS41 KBGM 161610
RWRBGM

REGIONAL WEATHER ROUNDUP
NATIONAL WEATHER SERVICE BINGHAMTON NY
1100 AM EST MON JAN 16 2017

Note: "fair" indicates few or no clouds below 12,000 feet with no
significant weather and/or obstructions to visibility.

* = Station(s) that does not report precipitation, such as rain,
snow, etc, also no thunder or fog.

NYZ009-015>018-022>025-036-037-044>046-055>057-062-161700
...Central New York...

CITY           SKY/WX    TMP DP  RH WIND       PRES   REMARKS
Binghamton     SUNNY     27  20  75 W6        30.33F WCI  20
Cortland       FAIR      32  23  69 SW5       30.36S WCI  27
Dansville      SUNNY     33  21  61 SE7       30.36F WCI  27
Elmira         SUNNY     24  19  81 CALM      30.38F
Seneca Falls   SUNNY     36  25  64 SW6       30.38F WCI  31
Ithaca         SUNNY     34  19  54 VRB3      30.36F
Hamilton       SUNNY     30  21  69 S5        30.35F WCI  25
Monticello     SUNNY     28  21  74 SW6       30.39F WCI  22
Norwich        SUNNY     27  19  74 S5        30.39S WCI  21
Oneonta        SUNNY     27  18  69 SW7       30.32F WCI  19
Penn Yan       SUNNY     32  19  58 SW12      30.36F WCI  23
Rome           SUNNY     28  20  71 CALM      30.40S
Sidney         SUNNY     27  25  93 W3        30.38F
Syracuse       PTSUNNY   34  20  56 SW10      30.37F WCI  26
$$

PAZ038>040-043-044-047-048-072-161700
...Northeast Pennsylvania...

CITY           SKY/WX    TMP DP  RH WIND       PRES   REMARKS
Hazleton       SUNNY     37  28  70 CALM      30.40F
Scranton       SUNNY     26  18  71 CALM      30.41F
$$
&&
KEY
WCI = Wind Chill Index
VSB = Visibility
HX  = Heat Index
$$




USA.gov is the U.S. government's official web portal to all federal, state and local government web resources and services.